Effective Sunday, March 17, 2024, the National Weather Service National Data Buoy Center will discontinue its Dial-A-Buoy Interactive Voice Response system. For more information, see Service Change Notice 24-06 (PDF).

Station UTVT2 - 8775236 - UTMSI Visibility, TX Image indicating link to RSS feed of recent meteorological observations for station UTVT2


Conditions at UTVT2 as of
(5:18 pm CST)
2318 GMT on 02/23/2024:
     

Click on the graph icon in the table below to see a time series plot of the last five days of that observation.

5-day plot - Atmospheric Pressure Atmospheric Pressure (PRES):29.98 in
5-day plot - Visibility Visibility (VIS): 5.9 nmi
NOS Water Level Observation Network Water Level
Previous observations
TIME
(CST)
5-day plot - Wind Direction
WDIR
 
5-day plot - Wind Speed
WSPD
kts
5-day plot - Wind Gust
GST
kts
5-day plot - Wave Height
WVHT
ft
5-day plot - Dominant Wave Period
DPD
sec
5-day plot - Average Wave Period
APD
sec
5-day plot - Mean Wave Direction
MWD
 
5-day plot - Atmospheric Pressure
PRES
in
5-day plot - Pressure Tendency
PTDY
in
5-day plot - Air Temperature
ATMP
°F
5-day plot - Water Temperature
WTMP
°F
5-day plot - Dew Point
DEWP
°F
5-day plot - Salinity
SAL
psu
5-day plot - Visibility
VIS
nmi
5-day plot - Tide (above MLLW)
TIDE
ft
2024-02-23 05:12 pm-------29.98----- 5.9-
2024-02-23 05:06 pm-------29.98----- 5.9-
2024-02-23 05:00 pm-------29.98-0.01 70.3- 54.7- 5.9-
2024-02-23 04:54 pm-------29.98- 70.5- 53.4- 5.9-
2024-02-23 04:48 pm-------29.98- 71.2- 53.6- 5.9-
2024-02-23 04:42 pm-------29.98- 71.2- 53.6- 5.9-
2024-02-23 04:36 pm-------29.98- 71.1- 53.1- 5.9-
2024-02-23 04:30 pm-------29.98- 71.4- 52.0- 5.9-
2024-02-23 04:24 pm-------29.98- 70.9- 51.6- 5.9-
2024-02-23 04:18 pm-------29.98- 72.1- 53.1- 5.9-
2024-02-23 04:12 pm-------29.97- 71.4- 50.4- 5.9-
2024-02-23 04:06 pm-------29.98- 72.1- 51.4- 5.9-
2024-02-23 04:00 pm-------29.98-0.03 70.9- 54.7- 5.9-
2024-02-23 03:54 pm-------29.98- 71.8- 54.1- 5.9-
2024-02-23 03:48 pm-------29.98- 71.8- 53.1- 5.9-
2024-02-23 03:42 pm-------29.98- 73.9- 54.3- 5.9-
2024-02-23 03:36 pm-------29.98- 72.9- 52.5- 5.9-
2024-02-23 03:30 pm-------29.98- 73.0- 52.3- 5.9-
2024-02-23 03:24 pm-------29.98- 72.5- 51.6- 5.9-
2024-02-23 03:18 pm-------29.98- 72.7- 51.4- 5.9-
2024-02-23 03:12 pm-------29.98- 72.7- 50.9- 5.9-
2024-02-23 03:06 pm-------29.98- 72.7- 50.9- 5.9-
2024-02-23 03:00 pm-------29.98-0.05 70.9- 49.5- 5.9-
2024-02-23 02:54 pm-------29.98- 72.3- 50.7- 5.9-
2024-02-23 02:48 pm-------29.98- 72.3- 50.5- 5.9-
2024-02-23 02:42 pm-------29.98- 72.1- 49.8- 5.9-
2024-02-23 02:36 pm-------29.98- 72.0- 50.4- 5.9-
2024-02-23 02:30 pm-------29.98- 72.7- 50.2- 5.9-
2024-02-23 02:24 pm-------29.98- 72.0- 50.0- 5.9-
2024-02-23 02:18 pm-------29.98- 72.0- 50.7- 5.9-
2024-02-23 02:12 pm-------29.98- 71.1- 50.5- 5.9-
2024-02-23 02:06 pm-------29.98- 71.8- 51.3- 5.9-
2024-02-23 02:00 pm-------29.99-0.05 71.2- 51.4- 5.9-
2024-02-23 01:54 pm-------29.99- 71.6- 51.6- 5.9-
2024-02-23 01:48 pm-------29.99- 71.2- 52.9- 5.9-
2024-02-23 01:42 pm-------29.99- 71.8- 51.6- 5.9-
2024-02-23 01:36 pm-------29.99- 71.6- 50.9- 5.9-
2024-02-23 01:30 pm-------30.00- 71.2- 52.0- 5.9-
2024-02-23 01:24 pm-------30.00- 71.8- 52.0- 5.9-
2024-02-23 01:18 pm-------30.00- 71.6- 51.6- 5.9-
2024-02-23 01:12 pm-------30.00- 71.2- 51.3- 5.9-
2024-02-23 01:06 pm-------30.00- 71.6- 51.1- 5.9-
2024-02-23 01:00 pm-------30.00-0.02 71.6- 50.2- 5.9-
2024-02-23 12:54 pm-------30.01- 71.8- 49.6- 5.9-
2024-02-23 12:48 pm-------30.01- 70.9- 52.5- 5.9-
2024-02-23 12:42 pm-------30.01- 71.4- 52.3- 5.9-
2024-02-23 12:36 pm-------30.01- 70.7- 52.5- 5.9-
2024-02-23 12:30 pm-------30.02- 70.5- 52.5- 5.9-
2024-02-23 12:24 pm-------30.02- 69.8- 52.0- 5.9-
2024-02-23 12:18 pm-------30.02- 69.3- 53.1- 5.9-
2024-02-23 12:12 pm-------30.02- 70.2- 54.0- 5.9-
2024-02-23 12:06 pm-------30.03- 69.8- 54.5- 5.9-
2024-02-23 12:00 pm-------30.03+0.02 69.8- 54.1- 5.9-
2024-02-23 11:54 am-------30.03- 70.0- 52.3- 5.9-
2024-02-23 11:48 am-------30.04- 69.6- 52.9- 5.9-
2024-02-23 11:42 am-------30.03- 69.3- 53.4- 5.9-
2024-02-23 11:36 am-------30.03- 69.1- 53.2- 5.9-
2024-02-23 11:30 am-------30.03- 68.9- 52.9- 5.9-
2024-02-23 11:24 am-------30.03- 69.8- 52.3- 5.9-
2024-02-23 11:18 am-------30.03- 70.2- 53.8- 5.9-
2024-02-23 11:12 am-------30.03- 69.6- 55.2- 5.9-
2024-02-23 11:06 am-------30.03- 69.6- 55.0- 5.9-
2024-02-23 11:00 am-------30.03+0.04 68.5- 54.3- 5.9-
2024-02-23 10:54 am-------30.03- 68.0- 54.1- 5.9-
2024-02-23 10:48 am-------30.03- 67.5- 54.0- 5.9-
2024-02-23 10:42 am-------30.03- 67.1- 53.8- 5.9-
2024-02-23 10:36 am-------30.03- 66.9- 53.1- 5.9-
2024-02-23 10:30 am-------30.03- 66.9- 53.2- 5.9-
2024-02-23 10:24 am-------30.03- 66.4- 52.7- 5.9-
2024-02-23 10:18 am-------30.03- 66.4- 53.2- 5.9-
2024-02-23 10:12 am-------30.03- 66.4- 53.2- 5.9-
2024-02-23 10:06 am-------30.03- 66.4- 53.1- 5.9-
2024-02-23 10:00 am-------30.03+0.08 66.0- 53.2- 5.9-
2024-02-23 09:54 am-------30.02- 65.8- 52.9- 5.9-
2024-02-23 09:48 am-------30.03- 65.5- 53.2- 5.9-
2024-02-23 09:42 am-------30.02- 65.1- 52.9- 5.9-
2024-02-23 09:36 am-------30.02- 64.9- 52.5- 5.9-
2024-02-23 09:30 am-------30.02- 64.8- 52.5- 5.9-
2024-02-23 09:24 am-------30.02- 64.6- 52.3- 5.9-
2024-02-23 09:18 am-------30.02- 64.6- 52.3- 5.9-
2024-02-23 09:12 am-------30.02- 64.6- 52.3- 5.9-
2024-02-23 09:06 am-------30.01- 64.4- 52.3- 5.9-
2024-02-23 09:00 am-------30.01+0.09 64.4- 52.0- 5.9-
2024-02-23 08:54 am-------30.01- 64.6- 52.7- 5.9-
2024-02-23 08:48 am-------30.01- 64.8- 53.1- 5.9-
2024-02-23 08:42 am-------30.01- 64.6- 53.4- 5.9-
2024-02-23 08:36 am-------30.00- 64.4- 53.1- 5.9-
2024-02-23 08:30 am-------30.00- 64.4- 53.2- 5.9-
2024-02-23 08:24 am-------30.00- 64.6- 54.0- 5.9-
2024-02-23 08:18 am-------30.00- 64.4- 54.0- 5.9-
2024-02-23 08:12 am-------29.99- 64.2- 53.8- 5.9-
2024-02-23 08:06 am-------29.99- 64.2- 53.6- 5.9-
2024-02-23 08:00 am-------29.99+0.10 64.0- 54.0- 5.9-
2024-02-23 07:54 am-------29.98- 63.7- 53.2- 5.9-
2024-02-23 07:48 am-------29.98- 63.5- 53.6- 5.9-
2024-02-23 07:42 am-------29.98- 63.0- 54.1- 5.9-
2024-02-23 07:36 am-------29.98- 62.4- 54.5- 5.9-
2024-02-23 07:30 am-------29.97- 61.7- 53.8- 5.9-
2024-02-23 07:24 am-------29.96- 61.9- 53.4- 5.9-
2024-02-23 07:18 am-------29.96- 61.9- 53.6- 5.9-
2024-02-23 07:12 am-------29.95- 61.9- 53.4- 5.9-
2024-02-23 07:06 am-------29.95- 62.2- 53.2- 5.9-
2024-02-23 07:00 am-------29.95+0.07 63.0- 53.2- 5.9-
2024-02-23 06:54 am-------29.94- 62.8- 53.6- 5.9-
2024-02-23 06:48 am-------29.94- 63.3- 54.5- 5.9-
2024-02-23 06:42 am-------29.93- 63.0- 55.0- 5.9-
2024-02-23 06:36 am-------29.93- 63.3- 54.5- 5.9-
2024-02-23 06:30 am-------29.93- 63.3- 54.7- 5.9-
2024-02-23 06:24 am-------29.93- 63.3- 55.0- 5.9-
2024-02-23 06:18 am-------29.92- 63.1- 55.2- 5.9-
2024-02-23 06:12 am-------29.91- 63.0- 55.0- 5.9-
2024-02-23 06:06 am-------29.92- 63.7- 54.7- 5.9-
2024-02-23 06:00 am-------29.92+0.04 63.1- 54.1- 5.9-
2024-02-23 05:54 am-------29.91- 62.8- 54.1- 5.9-
2024-02-23 05:48 am-------29.91- 63.0- 54.7- 5.9-
2024-02-23 05:42 am-------29.91- 62.4- 55.0- 5.9-
2024-02-23 05:36 am-------29.90- 62.6- 54.9- 5.9-
2024-02-23 05:30 am-------29.90- 63.1- 55.2- 5.9-
2024-02-23 05:24 am-------29.90- 63.9- 55.8- 5.9-
2024-02-23 05:18 am-------29.89- 64.0- 56.3- 5.9-
2024-02-23 05:12 am-------29.89- 64.0- 57.4- 5.9-
2024-02-23 05:06 am-------29.89- 64.4- 57.7- 5.9-
2024-02-23 05:00 am-------29.89+0.04 63.7- 59.2- 5.9-
2024-02-23 04:54 am-------29.88- 63.7- 60.1- 5.9-
2024-02-23 04:48 am-------29.87- 63.1- 61.2- 5.9-
2024-02-23 04:42 am-------29.87- 62.8- 61.9- 5.9-
2024-02-23 04:36 am-------29.87- 62.6- 62.4- 5.9-
2024-02-23 04:30 am-------29.87- 62.6- 62.6- 5.9-
2024-02-23 04:24 am-------29.87- 63.1- 63.1- 5.9-
2024-02-23 04:18 am-------29.87- 63.1- 63.1- 5.9-
2024-02-23 04:12 am-------29.87- 63.0- 63.0- 5.9-
2024-02-23 04:06 am-------29.88- 62.8- 62.8- 5.9-
2024-02-23 04:00 am-------29.88+0.04 63.0- 63.0- 5.9-
2024-02-23 03:54 am-------29.87- 63.0- 63.0- 5.9-
2024-02-23 03:48 am-------29.88- 63.1- 63.1- 5.9-
2024-02-23 03:42 am-------29.88- 63.1- 63.1- 5.9-
2024-02-23 03:36 am-------29.88- 63.5- 63.5- 4.9-
2024-02-23 03:30 am-------29.88- 63.5- 63.5- 4.9-
2024-02-23 03:24 am-------29.88- 63.7- 63.7- 4.9-
2024-02-23 03:18 am-------29.88- 63.9- 63.9- 4.9-
2024-02-23 03:12 am-------29.87- 64.2- 64.2- 4.3-
2024-02-23 03:06 am-------29.87- 64.0- 64.0- 3.2-
2024-02-23 03:00 am-------29.87+0.04 63.5- 63.5- 0.9-
2024-02-23 02:54 am-------29.87- 63.5- 63.5- 0.2-
2024-02-23 02:48 am-------29.87- 63.3- 63.3- 0.1-
2024-02-23 02:42 am-------29.87- 63.3- 63.3- 0.1-
2024-02-23 02:36 am-------29.86- 63.3- 63.3- 0.1-
2024-02-23 02:30 am-------29.86- 63.7- 63.7- 0.1-
2024-02-23 02:24 am-------29.87- 63.7- 63.7- 0.2-
2024-02-23 02:18 am-------29.86- 63.7- 63.7- 0.4-
2024-02-23 02:12 am-------29.85- 63.9- 63.9- 1.0-
2024-02-23 02:06 am-------29.85- 64.0- 64.0- 0.9-
2024-02-23 02:00 am-------29.85+0.02 64.0- 64.0- 1.2-
2024-02-23 01:54 am-------29.85- 64.0- 64.0- 1.3-
2024-02-23 01:48 am-------29.85- 63.9- 63.9- 1.2-
2024-02-23 01:42 am-------29.84- 63.9- 63.9- 1.1-
2024-02-23 01:36 am-------29.84- 64.0- 64.0- 1.2-
2024-02-23 01:30 am-------29.84- 64.0- 64.0- 1.2-
2024-02-23 01:24 am-------29.85- 64.2- 64.2- 1.3-
2024-02-23 01:18 am-------29.84- 64.4- 64.4- 1.5-
2024-02-23 01:12 am-------29.84- 64.8- 64.8- 1.9-
2024-02-23 01:06 am-------29.84- 64.8- 64.8- 1.6-
2024-02-23 01:00 am-------29.84+0.01 65.1- 65.1- 1.6-
2024-02-23 12:54 am-------29.83- 64.9- 64.9- 1.9-
2024-02-23 12:48 am-------29.84- 64.9- 64.9- 1.9-
2024-02-23 12:42 am-------29.83- 64.8- 64.8- 1.3-
2024-02-23 12:36 am-------29.83- 64.6- 64.6- 1.4-
2024-02-23 12:30 am-------29.83- 64.4- 64.4- 0.9-
2024-02-23 12:24 am-------29.83- 64.4- 64.4- 0.8-
2024-02-23 12:18 am-------29.83- 64.4- 64.4- 1.0-
2024-02-23 12:12 am-------29.83- 64.6- 64.6- 1.0-
2024-02-23 12:06 am-------29.83- 64.8- 64.8- 1.1-
2024-02-23 12:00 am-------29.83+0.01 64.2- 64.2- 1.0-
2024-02-22 11:54 pm-------29.83- 64.6- 64.6- 1.2-
2024-02-22 11:48 pm-------29.83- 64.6- 64.6- 0.9-
2024-02-22 11:42 pm-------29.83- 64.8- 64.8- 1.5-
2024-02-22 11:36 pm-------29.83- 64.8- 64.8- 1.4-
2024-02-22 11:30 pm-------29.83- 64.0- 64.0- 0.8-
2024-02-22 11:24 pm-------29.83- 64.2- 64.2- 1.0-
2024-02-22 11:18 pm-------29.83- 64.2- 64.2- 1.0-
2024-02-22 11:12 pm-------29.83- 64.4- 64.4- 1.0-
2024-02-22 11:06 pm-------29.83- 64.4- 64.4- 1.1-
2024-02-22 11:00 pm-------29.83+0.04 64.4- 64.4- 1.1-
2024-02-22 10:54 pm-------29.83- 64.4- 64.4- 1.1-
2024-02-22 10:48 pm-------29.83- 64.4- 64.4- 1.2-
2024-02-22 10:42 pm-------29.83- 64.4- 64.4- 1.1-
2024-02-22 10:36 pm-------29.83- 64.4- 64.4- 1.1-
2024-02-22 10:30 pm-------29.83- 64.4- 64.4- 1.0-
2024-02-22 10:24 pm-------29.83- 64.4- 64.4- 1.1-
2024-02-22 10:18 pm-------29.82- 64.4- 64.4- 1.1-
2024-02-22 10:12 pm-------29.82- 64.4- 64.4- 1.0-
2024-02-22 10:06 pm-------29.82- 64.4- 64.4- 1.0-
2024-02-22 10:00 pm-------29.82+0.04 64.4- 64.4- 1.2-
2024-02-22 09:54 pm-------29.82- 64.4- 64.4- 1.1-
2024-02-22 09:48 pm-------29.82- 64.6- 64.6- 1.2-
2024-02-22 09:42 pm-------29.82- 64.6- 64.6- 1.2-
2024-02-22 09:36 pm-------29.82- 64.6- 64.6- 1.3-
2024-02-22 09:30 pm-------29.82- 64.6- 64.6- 1.3-
2024-02-22 09:24 pm-------29.82- 64.6- 64.6- 1.2-
2024-02-22 09:18 pm-------29.82- 64.6- 64.6- 1.2-
2024-02-22 09:12 pm-------29.82- 64.8- 64.8- 1.2-
2024-02-22 09:06 pm-------29.81- 64.9- 64.9- 1.2-
2024-02-22 09:00 pm-------29.81+0.04 64.9- 64.9- 1.3-
2024-02-22 08:54 pm-------29.81- 64.9- 64.9- 1.3-
2024-02-22 08:48 pm-------29.81- 65.1- 65.1- 1.3-
2024-02-22 08:42 pm-------29.80- 65.1- 65.1- 1.4-
2024-02-22 08:36 pm-------29.80- 65.1- 65.1- 1.4-
2024-02-22 08:30 pm-------29.80- 65.3- 65.3- 1.5-
2024-02-22 08:24 pm-------29.80- 65.5- 65.5- 1.5-
2024-02-22 08:18 pm-------29.79- 65.7- 65.7- 1.7-
2024-02-22 08:12 pm-------29.79- 65.5- 65.5- 1.7-
2024-02-22 08:06 pm-------29.79- 65.5- 65.5- 1.7-
2024-02-22 08:00 pm-------29.79+0.02 65.7- 65.7- 1.9-
2024-02-22 07:54 pm-------29.79- 65.7- 65.7- 1.7-
2024-02-22 07:48 pm-------29.79- 65.8- 65.8- 2.2-
2024-02-22 07:42 pm-------29.79- 66.0- 66.0- 2.2-
2024-02-22 07:36 pm-------29.79- 66.0- 66.0- 1.9-
2024-02-22 07:30 pm-------29.78- 66.2- 66.2- 2.2-
2024-02-22 07:24 pm-------29.78- 66.0- 66.0- 2.2-
2024-02-22 07:18 pm-------29.78- 66.0- 66.0- 1.9-
2024-02-22 07:12 pm-------29.78- 66.2- 66.2- 2.2-
2024-02-22 07:06 pm-------29.78- 66.4- 66.4- 2.4-
2024-02-22 07:00 pm-------29.78+0.01 66.4- 66.2- 2.4-
2024-02-22 06:54 pm-------29.78- 66.6- 66.4- 2.6-
2024-02-22 06:48 pm-------29.77- 66.6- 66.4- 2.6-
2024-02-22 06:42 pm-------29.77- 66.7- 66.4- 2.6-
2024-02-22 06:36 pm-------29.77- 66.7- 66.4- 2.6-
2024-02-22 06:30 pm-------29.78- 66.9- 66.4- 2.6-
2024-02-22 06:24 pm-------29.78- 66.9- 66.2- 3.2-
2024-02-22 06:18 pm-------29.78- 66.9- 66.2- 3.2-
2024-02-22 06:12 pm-------29.78- 67.1- 66.2- 3.2-
2024-02-22 06:06 pm-------29.77- 67.3- 66.4- 3.2-
2024-02-22 06:00 pm-------29.77+0.00 67.5- 66.4- 3.2-
2024-02-22 05:54 pm-------29.77- 67.6- 66.4- 3.2-
2024-02-22 05:48 pm-------29.77- 67.8- 66.4- 4.3-
2024-02-22 05:42 pm-------29.77- 68.0- 66.4- 3.2-
2024-02-22 05:36 pm-------29.77- 68.5- 66.4- 3.2-
2024-02-22 05:30 pm-------29.77----- 4.3-
2024-02-22 05:24 pm-------29.77----- 4.9-
2024-02-22 05:18 pm-------29.77- 69.3- 66.7- 4.9-
2024-02-22 05:12 pm-------29.77- 69.1- 66.4- 4.9-
2024-02-22 05:00 pm-------29.76-0.04---- 4.9-
2024-02-22 04:54 pm-------29.76----- 4.9-